Hourly Data Report for October 02, 2017

All times are specified in Local Standard Time (LST). Add 1 hour to adjust for Daylight Saving Time where and when it is observed.

RED EARTH
ALBERTA

56°33'07.070" N
115°16'40.040" W
546.00 m
3075488
71246
WRD

Download Data

Hourly Data (October 2017)
Hourly Data Report for October 2, 2017
Temp Definition
°C
Dew Point Temp Definition
°C
Rel Hum Definition
%
Wind Dir Definition
10's deg

Wind Spd Definition
km/h
Visibility Definition
km
Stn Press Definition
kPa
Hmdx Definition


Wind Chill Definition


Weather Definition


TIME
00:00 2.1 -3.9 64 34 17   96.14     LegendNANA
01:00 0.8 -4.8 66 33 15   96.20     LegendNANA
02:00 -0.5 -5.4 70 33 12   96.23   -4 LegendNANA
03:00 -1.1 -5.7 71 33 11   96.28   -5 LegendNANA
04:00 -1.3 -5.7 72 33 13   96.33   -6 LegendNANA
05:00 -1.7 -5.9 73 34 12   96.37   -6 LegendNANA
06:00 -2.1 -6.1 74 34 10   96.42   -6 LegendNANA
07:00 -1.1 -5.8 71 34 9   96.49   -4 LegendNANA
08:00 -0.2 -5.9 65 33 10   96.54   -4 LegendNANA
09:00 0.4 -6.1 62 34 15   96.60     LegendNANA
10:00 1.2 -5.6 60 35 12   96.62     LegendNANA
11:00 2.1 -5.9 55 35 12   96.61     LegendNANA
12:00 3.6 -6.3 48 36 12   96.57     LegendNANA
13:00 5.0 -6.9 42 34 13   96.52     LegendNANA
14:00 5.6 -8.4 36 31 15   96.51     LegendNANA
15:00 6.5 -7.7 35 34 16   96.50     LegendNANA
16:00 6.3 -8.5 34 34 15   96.46     LegendNANA
17:00 6.0 -8.4 35 31 11   96.48     LegendNANA
18:00 4.5 -8.0 40 32 6   96.46     LegendNANA
19:00 0.3 -7.1 58   0   96.43     LegendNANA
20:00 -2.5 -7.3 70   0   96.46     LegendNANA
21:00 -4.2 -7.8 76 12 3   96.46   -5 LegendNANA
22:00 -4.8 -7.9 79 11 3   96.42   -6 LegendNANA
23:00 -5.4 -8.0 82 15 6   96.41   -8 LegendNANA

Notes on Data Quality.

Legend

  • E = Estimated
  • M = Missing
  • NA = Not Available
  • ‡ = Partner data that is not subject to review by the National Climate Archives
Date modified: